This demonstration page uses our WeatherBlox Daily Observations layout. Learn more.

Left ArrowRight Arrow

39.12711, -84.51439

Hourly Observations for June 5, 2017

Temp ( °F °C ) Dew Point ( °F °C ) Humidity (%) Winds ( mph kmh ) Pressure ( in mb ) Visibility ( mi km ) Precip ( " mm )
12:53 am 00:53 Clear 67 19.4 65 18.3 93 93 Calm 29.80 1009 10 16 0.00 0.00
1:53 am 01:53 Clear 66 18.9 64 17.8 93 93 Calm 29.79 1009 9 14 0.00 0.00
2:53 am 02:53 Clear 70 21.1 64 17.8 82 82 SSE 3 6 29.78 1009 10 16 0.00 0.00
3:53 am 03:53 Clear 69 20.6 66 18.9 90 90 S 7 11 29.77 1008 10 16 0.00 0.00
4:53 am 04:53 Clear 69 20.6 66 18.9 90 90 SSW 6 9 29.76 1008 10 16 0.00 0.00
5:53 am 05:53 Clear 70 21.1 66 18.9 87 87 SW 5 7 29.76 1008 10 16 0.00 0.00
6:53 am 06:53 Mostly Sunny 70 21.1 66 18.9 87 87 S 3 6 29.77 1008 10 16 0.00 0.00
7:53 am 07:53 Partly Cloudy 73 22.8 68 20 84 84 W 7 11 29.78 1008 10 16 0.00 0.00
8:53 am 08:53 Sunny 75 23.9 69 20.6 82 82 W 6 9 29.77 1008 10 16 0.00 0.00
9:53 am 09:53 Sunny 77 25 68 20 74 74 WSW 5 7 29.77 1008 10 16 0.00 0.00
10:53 am 10:53 Sunny 77 25 67 19.4 71 71 VRB 3 6 29.76 1008 10 16 0.00 0.00
11:53 am 11:53 Mostly Sunny 79 26.1 66 18.9 65 65 VRB 3 6 29.76 1008 10 16 0.00 0.00
12:53 pm 12:53 Mostly Sunny 79 26.1 67 19.4 67 67 WSW 9 15 29.74 1007 10 16 0.00 0.00
1:53 pm 13:53 Partly Cloudy 81 27.2 68 20 65 65 W 7 11 29.73 1007 10 16 0.00 0.00
2:53 pm 14:53 Mostly Cloudy 83 28.3 70 21.1 65 65 WSW 8 13 29.71 1006 10 16 0.00 0.00
3:53 pm 15:53 Partly Cloudy 83 28.3 68 20 61 61 WSW 9 15 29.70 1006 10 16 0.00 0.00
4:16 pm 16:16 Mostly Cloudy with Thunderstorms 78 25.6 61 16.1 56 56 NNW 13 20 29.71 1006 10 16 0.00 0.00
4:53 pm 16:53 Mostly Cloudy with Thunderstorms 68 20 64 17.8 87 87 SSW 6 9 29.71 1006 10 16 0.02 0.51
5:08 pm 17:08 Mostly Cloudy 69 20.6 64 17.8 84 84 NNE 5 7 29.74 1007 10 16 0.00 0.03
5:37 pm 17:37 Sunny 68 20 65 18.3 90 90 SSW 6 9 29.74 1007 10 16 0.00 0.03
5:53 pm 17:53 Sunny 69 20.6 66 18.9 90 90 SSW 5 7 29.72 1006 10 16 0.00 0.03
6:53 pm 18:53 Sunny 73 22.8 65 18.3 76 76 SW 5 7 29.70 1006 10 16 0.00 0.00
7:53 pm 19:53 Mostly Sunny 72 22.2 65 18.3 79 79 Calm 29.72 1007 10 16 0.00 0.00
8:53 pm 20:53 Mostly Cloudy 71 21.7 65 18.3 81 81 NNE 9 15 29.76 1008 10 16 0.00 0.00
9:53 pm 21:53 Mostly Cloudy 68 20 66 18.9 93 93 Calm 29.79 1009 10 16 0.00 0.00
10:53 pm 22:53 Cloudy 67 19.4 66 18.9 97 97 Calm 29.82 1010 10 16 0.00 0.00
11:53 pm 23:53 Clear 66 18.9 65 18.3 96 96 ENE 3 6 29.83 1010 10 16 0.00 0.00

Powered by AerisWeather